Alabaster, AL

8:25 PM CST on November 16, 2019 (GMT -0600)
Shelby County

Weather History for KEET - October, 2019

Change the Weather History Date:

Friday, October 18, 2019

  Actual Average Record
Temperature  
Mean Temperature 54 °F 63 °F  
Max Temperature 65 °F 74 °F 89 °F (2016)
Min Temperature 43 °F 52 °F 33 °F (1977)
Degree Days  
Heating Degree Days 11 4  
Month to date heating degree days 30 42  
Since 1 July heating degree days 30 49  
Cooling Degree Days 0 2  
Month to date cooling degree days 164 58  
Year to date cooling degree days 2490 1942  
Growing Degree Days 4 (Base 50)    
Moisture  
Dew Point 43 °F    
Average Humidity 68    
Maximum Humidity 92    
Minimum Humidity 44    
Precipitation  
Precipitation 0.00 in 0.10 in 1.04 in (2012)
Month to date precipitation 0.52 1.73  
Year to date precipitation 34.39 43.64  
Snow  
Snow 0.00 in - - ()
Month to date snowfall 0.0  
Since 1 July snowfall 0.0  
Since 1 September snowfall 0.0  
Snow Depth 0.00 in    
Sea Level Pressure  
Sea Level Pressure 29.95 in    
Wind  
Wind Speed 2 mph (ENE)    
Max Wind Speed 9 mph    
Max Gust Speed 13 mph    
Visibility 10 miles    
Events      
T = Trace of Precipitation, MM = Missing Value Source: NWS Daily Summary

Daily Weather History Graph

Daily Weather History Graph

Search for Another Location

Airport or City:

Astronomy

Oct. 18, 2019 Rise Set
Actual Time 6:53 AM CDT 6:10 PM CDT
Civil Twilight 6:28 AM CDT 6:35 PM CDT
Nautical Twilight 5:59 AM CDT 7:04 PM CDT
Astronomical Twilight 5:31 AM CDT 7:32 PM CDT
Moon 9:38 PM CDT (10/18) 11:14 AM CDT (10/18)
Length of Visible Light 12h 06m
Length of Day
11h 16m
Waning Gibbous, 78% of the Moon is Illuminated
Oct 18
Waning Gibbous
Oct 21
Last Quarter
Oct 27
New
Nov 4
First Quarter
Nov 12
Full

Hourly Weather History & Observations

Time (CDT) Temp. Dew Point Humidity Pressure Visibility Wind Dir Wind Speed Gust Speed Precip Events Conditions
12:53 AM 46.0 °F 43.0 °F 89% 29.99 in 10.0 mi Calm Calm - N/A   Clear
1:53 AM 45.0 °F 42.1 °F 90% 29.99 in 10.0 mi Calm Calm - N/A   Clear
2:53 AM 46.0 °F 43.0 °F 89% 29.98 in 10.0 mi Calm Calm - N/A   Clear
3:53 AM 44.1 °F 42.1 °F 93% 29.97 in 10.0 mi Calm Calm - N/A   Clear
4:53 AM 44.1 °F 41.0 °F 89% 29.95 in 10.0 mi Calm Calm - N/A   Clear
5:53 AM 50.0 °F 39.9 °F 68% 29.97 in 10.0 mi Calm Calm - N/A   Clear
6:53 AM 50.0 °F 39.9 °F 68% 29.97 in 10.0 mi Calm Calm - N/A   Clear
7:53 AM 52.0 °F 41.0 °F 66% 29.98 in 10.0 mi Calm Calm - N/A   Clear
8:53 AM 53.1 °F 42.1 °F 66% 30.01 in 10.0 mi ENE 4.6 mph - N/A   Clear
9:53 AM 55.0 °F 42.1 °F 62% 30.02 in 10.0 mi Calm Calm - N/A   Clear
10:53 AM 57.9 °F 41.0 °F 53% 30.00 in 10.0 mi East 5.8 mph - N/A   Clear
11:53 AM 60.1 °F 41.0 °F 49% 29.99 in 10.0 mi ENE 5.8 mph - N/A   Clear
12:53 PM 62.1 °F 42.1 °F 48% 29.97 in 10.0 mi Variable 3.5 mph - N/A   Clear
1:53 PM 64.0 °F 42.1 °F 45% 29.94 in 10.0 mi Variable 5.8 mph - N/A   Clear
2:53 PM 64.9 °F 43.0 °F 45% 29.93 in 10.0 mi Variable 3.5 mph - N/A   Clear
3:53 PM 64.9 °F 44.1 °F 47% 29.93 in 10.0 mi NNE 5.8 mph - N/A   Clear
4:53 PM 64.0 °F 45.0 °F 50% 29.91 in 10.0 mi Calm Calm - N/A   Clear
5:53 PM 62.1 °F 46.0 °F 56% 29.90 in 10.0 mi NE 3.5 mph - N/A   Clear
6:53 PM 55.9 °F 48.0 °F 75% 29.91 in 10.0 mi Calm Calm - N/A   Clear
7:53 PM 55.0 °F 48.0 °F 77% 29.90 in 10.0 mi Calm Calm - N/A   Clear
8:53 PM 57.0 °F 46.9 °F 69% 29.89 in 10.0 mi NE 3.5 mph - N/A   Clear
9:53 PM 57.9 °F 46.0 °F 65% 29.89 in 10.0 mi ENE 3.5 mph - N/A   Clear
10:53 PM 55.9 °F 46.9 °F 72% 29.90 in 10.0 mi NE 3.5 mph - N/A   Clear
11:53 PM 57.0 °F 46.9 °F 69% 29.88 in 10.0 mi ENE 3.5 mph - N/A   Clear